TimeMDT,TemperatureF,Dew PointF,Humidity,Sea Level PressureIn,VisibilityMPH,Wind Direction,Wind SpeedMPH,Gust SpeedMPH,PrecipitationIn,Events,Conditions,WindDirDegrees,DateUTC
12:15 AM,64.4,62.6,94,30.15,10.0,North,-9999.0,-,0.01,Rain,Light Rain,0,2013-07-16 06:15:00
12:35 AM,64.4,62.6,94,30.15,10.0,North,-9999.0,-,0.01,,Light Drizzle,0,2013-07-16 06:35:00
12:55 AM,64.4,62.6,94,30.15,10.0,ESE,15.0,19.6,0.01,Rain,Light Rain,120,2013-07-16 06:55:00
1:15 AM,62.6,60.8,94,30.15,10.0,ESE,11.5,-,0.01,Rain,Rain,110,2013-07-16 07:15:00
1:35 AM,62.6,60.8,94,30.14,10.0,ESE,15.0,19.6,0.01,Rain,Light Rain,110,2013-07-16 07:35:00
1:55 AM,62.6,60.8,94,30.15,10.0,ESE,13.8,20.7,0.02,Rain,Light Rain,110,2013-07-16 07:55:00
2:15 AM,62.6,62.6,100,30.15,10.0,ESE,13.8,19.6,0.01,Rain,Light Rain,120,2013-07-16 08:15:00
2:35 AM,62.6,60.8,94,30.15,7.0,ESE,16.1,20.7,0.03,Rain,Light Rain,120,2013-07-16 08:35:00
2:55 AM,62.6,60.8,94,30.15,10.0,ESE,15.0,20.7,0.04,Rain,Light Rain,120,2013-07-16 08:55:00
3:15 AM,62.6,60.8,94,30.15,5.0,SE,16.1,23.0,0.01,Rain,Light Rain,130,2013-07-16 09:15:00
3:35 AM,62.6,60.8,94,30.15,7.0,ESE,17.3,20.7,0.01,Rain,Light Rain,120,2013-07-16 09:35:00
3:55 AM,60.8,60.8,100,30.15,5.0,SE,13.8,19.6,0.02,Rain,Light Rain,130,2013-07-16 09:55:00
4:15 AM,60.8,59.0,94,30.15,5.0,SE,11.5,16.1,0.01,Rain,Rain,130,2013-07-16 10:15:00
4:35 AM,60.8,59.0,94,30.15,5.0,ESE,13.8,20.7,0.03,Rain,Light Rain,120,2013-07-16 10:35:00
4:55 AM,59.0,59.0,100,30.14,5.0,ESE,12.7,-,0.07,Rain,Light Rain,120,2013-07-16 10:55:00
5:15 AM,59.0,59.0,100,30.14,5.0,ESE,15.0,-,0.03,Rain,Light Rain,110,2013-07-16 11:15:00
5:35 AM,59.0,59.0,100,30.14,7.0,ESE,10.4,17.3,0.03,Rain,Light Rain,120,2013-07-16 11:35:00
5:55 AM,59.0,59.0,100,30.14,10.0,SE,9.2,-,0.03,,Light Drizzle,130,2013-07-16 11:55:00
6:15 AM,60.8,59.0,94,30.14,10.0,SE,8.1,-,0.01,,Overcast,130,2013-07-16 12:15:00
6:35 AM,60.8,59.0,94,30.15,10.0,SE,8.1,-,0.01,,Overcast,140,2013-07-16 12:35:00
6:55 AM,60.8,59.0,94,30.15,10.0,SE,8.1,-,0.01,,Overcast,140,2013-07-16 12:55:00
7:15 AM,60.8,59.0,94,30.15,10.0,SE,6.9,-,N/A,,Drizzle,140,2013-07-16 13:15:00
7:35 AM,60.8,59.0,94,30.16,10.0,SE,6.9,-,N/A,,Light Drizzle,140,2013-07-16 13:35:00
7:55 AM,62.6,59.0,88,30.17,10.0,SE,8.1,-,N/A,,Drizzle,140,2013-07-16 13:55:00
8:15 AM,62.6,59.0,88,30.17,10.0,SE,6.9,-,N/A,,Overcast,140,2013-07-16 14:15:00
8:35 AM,64.4,59.0,83,30.18,10.0,North,-9999.0,-,N/A,,Overcast,0,2013-07-16 14:35:00
8:55 AM,64.4,57.2,77,30.18,10.0,North,-9999.0,-,N/A,,Overcast,0,2013-07-16 14:55:00
9:15 AM,66.2,57.2,73,30.18,10.0,ESE,10.4,-,N/A,,Overcast,120,2013-07-16 15:15:00
9:55 AM,66.2,57.2,73,30.18,10.0,SE,11.5,-,N/A,,Overcast,140,2013-07-16 15:55:00
10:15 AM,66.2,59.0,78,30.18,10.0,SE,11.5,-,N/A,,Overcast,140,2013-07-16 16:15:00
10:35 AM,68.0,57.2,68,30.18,10.0,North,-9999.0,-,N/A,,Overcast,0,2013-07-16 16:35:00
10:55 AM,68.0,57.2,68,30.19,10.0,North,-9999.0,-,N/A,,Overcast,0,2013-07-16 16:55:00
11:15 AM,68.0,57.2,68,30.19,10.0,SE,12.7,21.9,N/A,,Overcast,130,2013-07-16 17:15:00
11:35 AM,69.8,57.2,64,30.19,10.0,SE,11.5,-,N/A,,Overcast,130,2013-07-16 17:35:00
11:55 AM,69.8,59.0,68,30.19,10.0,SE,12.7,-,N/A,,Overcast,130,2013-07-16 17:55:00
12:15 PM,71.6,59.0,64,30.19,10.0,SE,10.4,17.3,N/A,,Overcast,130,2013-07-16 18:15:00
12:35 PM,69.8,59.0,68,30.19,10.0,ESE,11.5,18.4,N/A,,Overcast,120,2013-07-16 18:35:00
12:55 PM,69.8,57.2,64,30.18,10.0,SE,13.8,-,N/A,,Overcast,130,2013-07-16 18:55:00
1:15 PM,71.6,57.2,60,30.18,10.0,ESE,10.4,-,N/A,,Overcast,120,2013-07-16 19:15:00
1:35 PM,71.6,55.4,57,30.17,10.0,ESE,10.4,16.1,N/A,,Overcast,120,2013-07-16 19:35:00
2:55 PM,73.4,55.4,53,30.16,10.0,ESE,11.5,-,N/A,,Overcast,120,2013-07-16 20:55:00
3:15 PM,73.4,55.4,53,30.15,10.0,SE,10.4,16.1,N/A,,Overcast,130,2013-07-16 21:15:00
3:35 PM,73.4,53.6,50,30.15,10.0,SE,8.1,-,N/A,,Overcast,140,2013-07-16 21:35:00
3:55 PM,75.2,53.6,47,30.14,10.0,ESE,11.5,17.3,N/A,,Overcast,120,2013-07-16 21:55:00
4:15 PM,75.2,53.6,47,30.14,10.0,SE,8.1,-,N/A,,Overcast,140,2013-07-16 22:15:00
4:35 PM,77.0,55.4,47,30.13,10.0,SE,4.6,-,N/A,,Overcast,130,2013-07-16 22:35:00
4:55 PM,77.0,53.6,44,30.13,10.0,SE,6.9,-,N/A,,Overcast,140,2013-07-16 22:55:00
5:15 PM,77.0,53.6,44,30.12,10.0,SE,6.9,-,N/A,,Overcast,140,2013-07-16 23:15:00
5:35 PM,77.0,53.6,44,30.12,10.0,SE,5.8,-,N/A,,Overcast,140,2013-07-16 23:35:00
5:55 PM,77.0,53.6,44,30.12,10.0,SE,4.6,-,N/A,,Overcast,140,2013-07-16 23:55:00
6:15 PM,77.0,55.4,47,30.12,10.0,North,-9999.0,-,N/A,,Overcast,0,2013-07-17 00:15:00
6:35 PM,77.0,53.6,44,30.12,10.0,South,5.8,-,N/A,,Overcast,190,2013-07-17 00:35:00
6:55 PM,77.0,55.4,47,30.12,10.0,North,-9999.0,-,N/A,,Overcast,0,2013-07-17 00:55:00
7:15 PM,77.0,55.4,47,30.12,10.0,North,-9999.0,-,N/A,,Overcast,0,2013-07-17 01:15:00
7:35 PM,75.2,55.4,50,30.12,10.0,North,-9999.0,-,N/A,,Overcast,0,2013-07-17 01:35:00
7:55 PM,75.2,55.4,50,30.13,10.0,North,-9999.0,-,N/A,,Overcast,0,2013-07-17 01:55:00
8:15 PM,73.4,59.0,61,30.13,10.0,North,-9999.0,-,N/A,,Mostly Cloudy,0,2013-07-17 02:15:00
8:35 PM,73.4,59.0,61,30.13,10.0,North,-9999.0,-,N/A,,Mostly Cloudy,0,2013-07-17 02:35:00
8:55 PM,71.6,60.8,69,30.13,10.0,North,-9999.0,-,N/A,,Overcast,0,2013-07-17 02:55:00
9:15 PM,71.6,59.0,64,30.14,10.0,NNW,4.6,-,N/A,,Mostly Cloudy,340,2013-07-17 03:15:00
9:35 PM,71.6,59.0,64,30.15,10.0,North,-9999.0,-,N/A,,Scattered Clouds,0,2013-07-17 03:35:00
9:55 PM,71.6,59.0,64,30.16,10.0,NNW,4.6,-,N/A,,Clear,340,2013-07-17 03:55:00
10:15 PM,71.6,59.0,64,30.17,10.0,NNW,4.6,-,N/A,,Clear,340,2013-07-17 04:15:00
10:35 PM,71.6,59.0,64,30.18,10.0,North,8.1,-,N/A,,Clear,360,2013-07-17 04:35:00
10:55 PM,69.8,59.0,68,30.18,10.0,North,6.9,-,N/A,,Clear,360,2013-07-17 04:55:00
11:15 PM,69.8,60.8,73,30.18,10.0,North,5.8,-,N/A,,Clear,360,2013-07-17 05:15:00
11:35 PM,68.0,60.8,78,30.19,10.0,North,6.9,-,N/A,,Clear,360,2013-07-17 05:35:00
11:55 PM,68.0,59.0,73,30.18,10.0,North,5.8,-,N/A,,Clear,360,2013-07-17 05:55:00